Location:  
MeteoStar


Sort by weather type Sort by elevation Sort by visibility Sort from west to east north Sort from north to south Alphabetically Sort from strongest wind speed Sort from lowest to highest pressure Sort from highest to lowest dew point temperature Sort coolest temperatures to warmest Sort warm temperatures to coolest
 Metric

Current Observations for Turkey

Adana / Incirlik00:00ZClear80 7371007.9E 4 80239
Adana / Sakirpasa00:20ZPartly Cloudy79 75121007.1ESE 3 7965
Akhisar00:00ZClear72 55121011.9NW 1 Gusting to 16 72305
Ankara / Esenboga00:00ZClear57 46121012.0N 2 Gusting to 13 573126
Antalya00:00ZClear80 7671008N 0 Gusting to 5 80164
Balikesir00:00ZClear63 5471015N 0 Gusting to 14 63331
Bandirma00:00ZClear66 6071015N 0 Gusting to 11 66167
Batman00:20ZNot Avail.68 5971004.0NNE 6 681771
Bodrum Milas Airport00:20ZNot Avail.72 6471009.1W 3 7219
Bodrum00:00ZClear80 65121008.9NNE 5 Gusting to 8 8088
Corlu00:20ZNot Avail.66 54121014.8W 4 66567
Corum00:00ZClear65 58121012ENE 2 Gusting to 18 652545
Dalaman00:00ZClear76 6771008.0NE 5 Gusting to 13 7622
Denizli00:00ZClear78 59121009.5SW 1 Gusting to 7 781404
Diyarbakir00:00ZClear76 4712999.7ESE 4 Gusting to 14 762250
Edirne00:00ZClear69 59121014.5N 2 Gusting to 8 69157
Elazig00:00ZClear74 43121002.5W 6 Gusting to 28 742959
Erzincan00:00ZClear69 4871006.7NW 8 Gusting to 19 693792
Erzurum00:00ZClear62 4612WSW 4 Gusting to 14 625761
Eskisehir00:00ZClear60 5271013.2NW 6 Gusting to 20 602575
Gaziantep00:00ZClear81 6071001.9NW 3 Gusting to 19 822299
Isparta00:00ZClear68 59121009.2WSW 1 Gusting to 5 683270
Istanbul / Ataturk00:00ZClear74 6571015.2NE 3 Gusting to 19 74157
Izmir / Adnan Menderes00:00ZClear79 5391011.2N 13 Gusting to 19 79410
Kars00:00ZClear55 487E 7 Gusting to 24 555823
Kayseri / Erkilet00:00ZClear66 49121008.9ENE 5 Gusting to 16 663454
Konya00:00ZClear73 49121009.0NNW 7 Gusting to 23 733385
Malatya / Erhac00:20ZNot Avail.79 45121008.2WSW 12 792828
Merzifon00:20ZClear64 57121013.8NNW 5 641788
Mugla00:00ZClear76 60121007.5W 5 Gusting to 9 762119
Sivas00:00ZClear62 4791009.2E 2 624215
Tokat00:00ZClear66 57121012.2ENE 3 Gusting to 20 661994
Trabzon00:00ZPartly Cloudy75 62121013.4SW 10 Gusting to 19 75114
Van00:00ZClear65 427N 0 Gusting to 7 655469
Zonguldak00:00ZClear66 63121015.2SE 3 Gusting to 5 66446

Atlantic
Tropical Watch